SCP
1 1 1 1 1 1 1 1 1 1 1 1 1 1 1 1 0 0 0 0 0 0 0 0 0 0 0 0 0 0 0 0 0 0 0 0 0 0 0 0 0 0 0
1 1 1 1 1 1 1 1 1 1 1 1 1 1 1 1 0 0 0 0 0 0 0 0 0 0 0 0 0 0 0 0 0 0 0 0 0 0 0 0 0 0 0
1 1 1 1 1 1 1 1 1 1 1 1 1 1 1 1 0 0 0 0 0 0 0 0 0 0 0 0 0 0 0 0 0 0 0 0 0 0 0 0 0 0 0
1 1 1 1 1 1 1 1 1 1 1 1 1 1 1 1 0 0 0 0 0 0 0 0 0 0 0 0 0 0 0 0 0 0 0 0 0 0 0 0 0 0 0
1 1 1 1 1 1 1 1 1 1 1 1 1 1 1 1 1 1 1 0 0 0 0 0 0 0 0 0 0 0 0 0 0 0 0 0 0 0 0 0 0 0 0
1 1 1 1 1 1 1 1 1 1 1 1 1 1 1 1 1 1 1 1 0 0 0 0 0 0 0 0 0 0 0 0 0 0 0 0 0 0 0 0 0 0 0
1 1 1 1 1 1 1 1 1 1 1 1 1 1 1 1 1 1 1 1 1 0 0 0 0 0 0 0 0 0 0 0 0 0 0 0 0 0 0 0 0 0 0
1 1 1 1 1 1 1 1 1 1 1 1 1 1 1 1 1 1 1 1 0 0 0 0 0 0 0 0 0 0 0 0 0 0 0 0 0 0 0 0 0 0 0
1 1 1 1 1 1 1 1 1 1 1 1 1 1 1 1 1 1 1 1 0 0 0 0 0 0 0 0 0 0 0 0 0 0 0 0 0 0 0 0 0 0 0
0 1 1 1 1 1 1 1 1 1 1 1 1 1 1 1 1 1 1 0 1 1 1 0 0 0 0 0 0 0 0 0 0 0 0 0 0 0 0 0 0 0 0
0 1 1 1 1 1 1 1 1 1 1 1 1 1 1 1 1 0 0 0 1 1 1 1 1 0 0 0 0 0 0 0 0 0 0 0 0 0 0 0 0 0 0
0 1 1 1 1 1 1 1 1 1 1 1 1 1 1 1 1 0 0 0 1 1 1 1 1 0 0 0 0 0 0 0 0 0 0 0 0 0 0 0 0 0 0
1 1 1 1 1 1 1 1 1 1 1 1 1 1 1 1 1 0 0 0 1 1 1 1 1 0 0 0 0 0 0 0 0 0 0 0 0 0 0 0 0 0 0
1 1 1 1 1 1 1 1 1 1 1 1 1 1 1 1 1 1 0 0 1 1 1 1 1 0 0 0 0 0 0 0 0 0 0 0 0 0 0 0 0 0 0
1 1 1 1 1 1 1 1 1 1 1 1 1 1 1 1 1 1 1 1 0 0 1 1 0 0 0 0 0 0 0 0 0 0 0 0 0 0 0 0 0 0 0
1 1 1 1 1 1 1 1 1 1 1 1 1 1 1 1 1 1 1 1 1 0 1 1 0 0 0 0 0 0 0 0 0 0 0 0 0 0 0 0 0 0 0
1 1 1 1 1 1 1 1 1 1 1 1 1 1 1 1 1 1 1 1 1 1 1 1 1 0 0 0 0 0 0 0 0 0 0 0 0 0 0 0 0 0 0
1 1 1 1 1 1 1 1 1 1 1 1 1 1 1 1 1 1 1 1 1 1 1 1 1 0 0 0 0 0 0 0 0 0 0 0 0 0 0 0 0 0 0
1 1 1 1 1 1 1 1 1 1 1 1 0 0 1 1 1 1 1 1 1 1 1 1 1 0 0 0 0 0 0 0 0 0 0 0 0 0 0 0 0 0 0
1 1 1 1 1 1 1 1 1 1 1 1 0 0 1 1 1 1 1 1 1 1 1 0 0 0 0 0 0 0 0 0 0 0 0 0 0 0 0 0 0 0 0
1 1 1 1 1 1 1 1 1 1 1 1 0 0 1 1 1 1 1 1 1 1 0 0 0 0 0 0 0 0 0 0 0 0 0 0 0 0 0 0 0 0 0
1 1 1 1 1 1 1 1 1 1 1 1 1 1 0 0 0 0 1 1 1 1 0 0 0 0 0 0 0 0 0 0 0 0 0 0 0 0 0 0 0 0 0
1 1 1 1 1 1 1 1 1 1 1 1 1 0 0 0 0 0 1 1 1 1 1 1 0 0 0 0 0 0 0 0 0 0 0 0 0 0 0 0 0 0 0
1 1 1 1 1 1 1 1 1 1 1 1 0 0 0 0 0 0 0 1 1 1 1 1 0 0 0 0 0 0 0 0 0 0 0 0 0 0 0 0 0 0 0
1 1 1 1 1 1 1 1 1 1 1 1 0 0 0 0 0 0 0 0 0 0 0 0 0 0 0 0 0 0 0 0 0 0 0 0 0 0 0 0 0 0 0
1 1 1 1 1 1 1 1 1 1 1 1 0 0 0 0 0 0 0 0 0 0 0 0 0 0 0 0 0 0 0 0 0 0 0 0 0 0 0 0 0 0 0
Wind_Speed
14 15 15 15 15 15 15 15 14 13 11 9 9 9 8 7 7 6 7 7 7 7 6 5 5 5 4 4 4 4 4 3 2 2 3 3 3 2 2 2 2 4 4
14 15 16 16 16 16 16 15 14 14 13 9 8 7 7 7 6 6 6 8 8 8 7 6 6 5 4 5 4 4 3 3 3 2 2 3 3 4 3 3 3 3 3
15 16 17 17 16 16 16 15 16 15 14 12 8 7 6 6 6 7 7 8 9 8 7 7 6 5 6 5 6 5 5 4 4 3 3 2 1 2 3 3 3 3 3
14 16 17 17 17 16 15 15 15 14 14 13 11 13 10 9 8 7 7 9 9 9 8 7 7 6 6 5 7 6 5 5 4 4 3 3 2 2 2 4 4 4 4
13 15 16 16 15 15 14 14 15 14 14 14 14 13 11 9 7 8 9 9 9 9 9 8 7 7 6 6 5 5 6 5 5 4 3 3 3 4 3 2 3 4 4
12 13 13 14 14 14 14 14 15 15 15 15 15 14 13 11 10 10 9 9 8 8 9 9 7 7 6 6 6 6 7 6 4 4 3 3 4 4 3 3 4 3 3
11 12 13 14 14 15 15 14 15 15 15 16 16 15 14 14 13 12 11 10 8 8 9 9 8 7 7 7 6 6 6 7 6 6 5 4 4 3 3 3 3 2 3
10 12 13 14 14 15 15 15 16 15 16 16 15 14 14 11 10 12 10 10 7 7 8 9 9 8 8 8 7 7 7 6 7 7 6 4 5 4 4 4 3 3 4
9 10 12 13 14 14 15 16 15 15 15 16 16 14 14 12 11 10 10 8 7 7 9 9 9 9 9 8 8 6 7 6 7 7 8 7 5 5 4 4 4 4 4
7 9 10 11 12 13 14 15 15 15 15 15 14 12 13 12 11 11 11 9 9 8 9 10 10 9 9 9 8 7 7 7 6 5 5 6 6 4 5 4 4 4 5
6 8 8 10 11 11 13 14 14 15 14 14 14 13 13 13 12 11 12 11 10 10 10 10 10 10 9 8 8 8 8 8 7 7 7 8 6 5 5 5 4 5 5
4 6 8 9 9 10 11 13 13 14 14 13 13 13 13 13 13 12 12 11 11 11 11 10 10 10 10 9 9 9 9 8 8 8 8 8 6 6 6 5 6 5 4
4 6 6 7 8 9 9 10 12 12 12 13 13 13 13 13 13 12 12 11 11 11 10 10 10 10 10 9 9 9 9 9 9 8 9 9 8 8 6 6 6 6 6
5 6 5 6 6 7 8 8 9 10 11 11 12 12 12 12 12 11 11 11 11 10 10 11 11 10 10 10 9 9 9 9 8 8 8 9 9 9 8 7 7 7 6
6 6 6 5 6 7 7 7 8 8 9 10 11 12 11 11 11 11 11 11 11 11 10 10 10 10 9 9 10 10 10 9 8 8 8 8 7 5 5 6 6 7 7
6 6 6 6 6 7 7 8 8 8 9 9 10 9 10 11 11 11 11 11 11 10 10 10 11 11 9 8 8 8 9 8 9 8 8 8 8 8 7 6 5 5 8
5 5 5 5 6 7 7 8 8 8 8 9 9 9 9 10 10 11 11 11 10 10 10 10 10 10 8 9 10 9 8 8 8 8 8 8 7 10 10 10 10 9 9
4 4 4 5 5 6 7 7 8 8 8 9 9 9 9 9 9 9 10 10 9 9 9 9 9 9 9 10 10 9 9 8 8 8 8 8 8 8 9 9 10 10 10
3 3 4 5 5 6 7 7 8 8 8 8 8 8 9 9 9 9 9 9 8 8 9 9 9 9 8 11 11 10 9 8 9 9 9 9 9 7 7 9 9 9 8
3 3 4 5 6 6 7 7 8 8 8 8 7 7 8 8 9 8 8 8 8 8 8 8 9 9 9 11 13 13 9 8 8 8 8 8 9 6 10 10 9 10 8
4 4 5 5 5 6 6 6 6 6 6 6 7 7 7 7 7 7 7 7 8 8 8 8 8 8 8 10 13 14 9 8 7 7 7 6 9 9 9 10 9 7 6
5 4 5 5 5 5 6 6 5 5 5 6 6 6 6 6 7 7 7 7 7 7 7 7 7 6 6 7 10 13 12 8 7 6 5 3 8 9 8 7 5 4 4
5 4 5 6 6 5 4 5 4 4 5 5 5 5 5 4 4 6 6 6 6 6 7 7 6 5 5 6 9 12 12 10 7 4 0 2 6 7 6 7 5 4 5
5 4 5 6 5 5 4 4 4 5 5 5 4 4 4 4 4 4 4 4 4 5 5 5 5 5 4 4 6 7 8 8 7 5 3 4 4 3 2 3 5 4 4
5 5 5 5 5 5 4 4 4 4 5 5 5 4 4 4 4 3 1 2 1 0 2 3 3 3 3 2 1 3 3 4 4 4 3 3 3 3 3 2 2 2 3
6 6 6 6 5 5 4 4 3 3 3 4 4 3 3 4 4 5 4 8 6 8 8 7 4 2 3 5 5 4 4 4 5 3 2 2 2 2 2 2 2 2 2
Wind_Direction
186 183 183 183 182 184 184 186 188 183 183 183 186 188 187 186 185 185 180 191 200 192 205 205 175 206 198 202 195 192 180 187 175 180 171 160 158 160 174 179 173 162 162
184 184 185 186 188 187 186 187 189 186 188 187 190 194 190 188 184 186 179 197 202 201 199 206 200 198 194 197 204 207 205 192 188 220 209 186 165 187 168 168 178 163 167
189 185 187 190 190 190 190 188 187 186 189 185 186 186 183 190 186 189 188 201 204 207 213 200 213 200 210 193 203 203 208 206 195 223 253 249 190 161 157 168 161 166 177
193 188 188 191 193 193 189 188 186 187 188 186 192 191 193 195 193 191 190 194 202 205 204 208 209 211 217 197 209 202 212 217 211 192 238 283 341 258 169 172 160 170 187
194 191 191 191 192 191 189 188 187 190 190 193 196 198 201 200 192 193 191 197 196 204 205 205 208 210 219 212 220 199 223 219 227 214 204 209 216 241 237 188 174 181 184
192 189 187 186 188 188 189 187 189 192 191 195 199 202 202 200 196 196 194 197 194 198 203 206 207 212 216 210 212 213 215 230 229 242 231 218 224 227 223 212 205 188 174
188 185 183 184 186 189 189 187 190 192 191 195 200 201 202 201 200 199 199 200 197 196 198 206 207 212 212 214 213 210 222 217 218 230 235 235 242 247 241 236 215 194 177
187 186 186 186 187 189 188 189 192 193 192 195 199 201 201 202 203 205 205 201 205 202 192 202 208 211 210 212 208 214 212 214 220 228 236 240 234 231 234 238 229 218 208
184 187 187 186 187 187 188 190 191 192 192 195 196 200 202 205 203 198 209 210 208 200 193 200 207 209 209 211 208 215 212 208 218 221 214 227 222 226 233 235 243 249 241
185 185 186 186 186 186 187 189 191 192 194 195 197 196 198 200 201 201 204 210 208 205 196 199 205 207 207 207 209 209 208 210 216 228 226 225 220 211 220 227 237 253 266
180 180 182 183 184 184 183 187 190 191 193 194 196 197 195 198 201 203 203 202 204 201 201 203 203 203 205 205 210 215 202 212 213 215 211 217 227 221 218 218 228 237 246
167 167 168 173 181 187 186 186 189 191 192 191 192 194 194 196 200 202 202 201 203 205 204 205 205 206 205 203 208 214 209 212 215 216 214 214 210 216 238 231 231 233 245
155 150 155 168 180 186 187 188 189 189 188 188 189 190 193 196 201 201 200 201 203 204 204 205 206 206 204 203 207 212 213 215 217 216 216 218 216 218 224 231 234 229 225
151 149 156 166 173 177 177 181 184 183 184 185 187 189 194 196 198 199 198 200 202 204 204 206 208 207 204 203 204 209 212 213 214 217 220 222 220 221 223 225 233 240 241
155 155 157 158 167 169 169 171 172 174 178 182 188 191 193 193 195 196 198 198 201 205 204 206 208 205 205 205 201 206 207 207 212 215 220 224 228 240 239 246 229 227 235
158 155 155 154 160 163 164 164 171 173 176 181 185 184 188 189 192 195 195 195 198 201 202 204 205 203 206 181 189 211 209 207 212 215 220 222 213 216 223 255 272 271 248
151 151 154 157 161 163 164 166 169 172 175 179 181 181 188 191 193 194 191 193 194 196 200 203 204 205 198 174 184 204 220 217 218 220 221 231 214 206 217 214 223 238 246
146 147 152 150 154 158 161 162 164 171 176 180 182 184 189 193 194 193 193 193 193 195 199 202 203 202 194 177 186 194 218 227 226 225 224 231 234 216 221 225 221 225 222
142 148 150 145 145 151 153 154 160 166 173 179 182 184 188 189 190 194 195 191 190 194 197 197 198 201 191 177 183 191 215 224 229 229 227 228 231 212 203 231 237 237 234
126 141 142 138 138 142 149 154 159 165 173 175 179 181 185 188 191 192 191 188 190 194 197 197 200 202 200 181 182 193 219 221 224 224 227 226 235 208 190 224 236 241 242
120 128 133 133 134 140 148 155 158 165 169 170 172 178 185 189 190 187 187 188 191 193 199 197 200 204 206 183 183 193 220 223 223 226 224 215 193 205 200 224 243 249 259
115 121 125 122 122 134 147 151 155 161 165 167 170 174 184 191 185 183 184 188 189 189 194 198 202 203 203 197 184 189 212 241 236 236 237 202 164 184 198 215 240 255 255
109 115 118 116 115 124 139 145 148 153 158 160 161 165 167 177 178 178 181 184 191 197 194 194 199 203 199 185 177 186 202 220 237 243 223 97 146 174 192 212 219 226 238
103 108 113 113 111 116 124 123 130 143 150 153 157 159 161 167 169 178 180 186 195 201 199 197 199 197 197 204 188 186 191 199 216 233 189 152 155 195 228 179 192 216 242
84 85 90 92 98 105 105 105 116 137 146 150 156 159 159 161 156 155 121 182 156 231 219 208 206 207 205 212 173 186 184 190 193 195 201 200 184 191 196 200 208 209 206
83 84 86 86 86 89 93 95 103 120 138 150 154 155 158 154 155 140 110 62 63 60 51 35 22 49 68 78 95 106 96 103 128 158 187 197 204 207 205 205 200 201 217